Flag for United Kingdom

Past Weather in 51°22'53.9"N, 2°21'28.5"W, United Kingdom — Yesterday and Last 2 Weeks

Currently: 39 °F. Chilly. (Weather station: Bristol / Lulsgate, United Kingdom). See more current weather

Past Weather in 51°22'53.9"N, 2°21'28.5"W — Graph

°F

51°22'53.9"N, 2°21'28.5"W Temperature Yesterday

Maximum temperature yesterday: 52 °F (at 3:50 pm)
Minimum temperature yesterday: 43 °F (at 5:20 am)
Average temperature yesterday: 47 °F

High & Low Weather Summary for the Past Weeks

 TemperatureHumidityPressure
High59 °F (Feb 15, 11:50 am)100% (Feb 14, 7:20 pm)30.48 "Hg (Feb 14, 7:20 pm)
Low34 °F (Feb 25, 7:50 am)61% (Feb 26, 5:20 pm)28.91 "Hg (Feb 22, 11:50 am)
Average46 °F92%29.82 "Hg
* Reported Feb 14 7:20 pm — Feb 29 7:50 pm, 51°22'53.9"N, 2°21'28.5"W. Weather by CustomWeather, © 2024

Note: Actual official high and low records may vary slightly from our data, if they occured in-between our weather recording intervals... More about our weather records

51°22'53.9"N, 2°21'28.5"W Weather History for the Previous 24 Hours

Scroll right to see more
 ConditionsComfort  
Time TempWeatherWind HumidityBarometerVisibility
7:50 pm
Thu, Feb 29
41 °FPassing clouds.12 mph87%29.59 "HgN/A
7:20 pm41 °FLight rain. Partly cloudy.13 mph87%29.59 "HgN/A
6:50 pm41 °FPassing clouds.10 mph87%29.59 "HgN/A
6:20 pm41 °FPassing clouds.10 mph87%29.59 "HgN/A
5:50 pm43 °FPartly cloudy.13 mph81%29.59 "HgN/A
5:20 pm43 °FPassing clouds.10 mph87%29.59 "HgN/A
4:50 pm43 °FLight rain. Scattered clouds.10 mph81%29.59 "HgN/A
4:20 pm45 °FQuite cool.12 mph81%29.59 "HgN/A
3:50 pm45 °FQuite cool.13 mph87%29.59 "HgN/A
3:20 pm46 °FPassing clouds.13 mph82%29.59 "HgN/A
2:20 pm46 °FCool.12 mph76%29.62 "HgN/A
1:50 pm46 °FCool.10 mph76%29.62 "HgN/A
1:20 pm45 °FQuite cool.10 mph87%29.62 "HgN/A
12:50 pm45 °FQuite cool.8 mph87%29.62 "HgN/A
12:20 pm46 °FCool.8 mph82%29.65 "HgN/A
11:50 am46 °FCool.8 mph82%29.65 "HgN/A
11:20 am46 °FPassing clouds.10 mph82%29.65 "HgN/A
10:50 am46 °FScattered clouds.9 mph93%29.65 "HgN/A
10:20 am46 °FBroken clouds.10 mph100%29.65 "HgN/A
9:50 am46 °FDrizzle. Fog.10 mph100%29.65 "Hg2 mi
9:20 am46 °FDrizzle. Partly sunny.6 mph100%29.65 "Hg5 mi
8:50 am46 °FDrizzle. Mostly cloudy.6 mph100%29.62 "Hg4 mi
8:20 am46 °FRain. Fog.8 mph100%29.65 "Hg0 mi
7:50 am46 °FRain. Fog.10 mph93%29.65 "Hg1 mi
7:20 am45 °FFog.10 mph100%29.65 "Hg0 mi
6:50 am45 °FRain. Low clouds.10 mph100%29.65 "Hg1 mi
6:20 am45 °FRain. Fog.10 mph100%29.65 "Hg0 mi
5:50 am45 °FDrizzle. Low clouds.9 mph100%29.65 "Hg1 mi
5:20 am46 °FRain. Low clouds.12 mph93%29.68 "Hg1 mi
4:50 am46 °FFog.18 mph100%29.68 "Hg1 mi
4:20 am48 °FDrizzle. Low clouds.10 mph100%29.65 "Hg3 mi
3:50 am48 °FLight rain. Mostly cloudy.10 mph100%29.68 "Hg4 mi
3:20 am48 °FDrizzle. Low clouds.12 mph100%29.68 "Hg2 mi
2:20 am48 °FDrizzle. Low clouds.10 mph100%29.71 "Hg2 mi
1:50 am48 °FDrizzle. Mostly cloudy.12 mph100%29.74 "Hg2 mi
1:20 am50 °FDrizzle. Low clouds.10 mph94%29.74 "Hg3 mi
12:50 am50 °FLow clouds.12 mph94%29.77 "HgN/A
12:20 am50 °FLow clouds.15 mph94%29.77 "HgN/A
11:50 pm
Wed, Feb 28
50 °FLow clouds.13 mph94%29.77 "HgN/A
11:20 pm50 °FLow clouds.13 mph94%29.80 "HgN/A
10:50 pm50 °FOvercast.15 mph88%29.80 "HgN/A
10:20 pm50 °FMostly cloudy.14 mph88%29.80 "HgN/A
9:50 pm50 °FMostly cloudy.9 mph94%29.83 "HgN/A
9:20 pm50 °FLight rain. Low clouds.13 mph100%29.83 "Hg4 mi
Weather by CustomWeather, © 2024

See weather overview